When you browse on this site, cookies collect data to enhance your experience and personalize the content and advertising you see.
Visit our Privacy Policy to learn more. By continuing to use the site, you agree to this use of cookies and data.
  • In Österreich
  • Länderverzeichnis
  • Für 7 Tage
  • Wassertemperatur
  • Wetterkarte
  • News
  • Widgets
  • user-avatar
    Anmelden

    Stündliche Wetter Arnoldstein

    Heute, 19 September, Donnerstag

    Zeit Temperatur Niederschläge Wind Luftdruck Luftfeuchtigkeit
    00:00 +11°C° 0 mm 1 m/S 695 mmHg 91%
    01:00 +10°C° 0 mm 2 m/S 695 mmHg 90%
    02:00 +10°C° 0 mm 2 m/S 695 mmHg 89%
    03:00 +10°C° 0 mm 1 m/S 695 mmHg 89%
    04:00 +10°C° 0 mm 1 m/S 695 mmHg 88%
    05:00 +10°C° 0 mm 1 m/S 695 mmHg 86%
    06:00 +10°C° 0 mm 1 m/S 695 mmHg 84%
    07:00 +10°C° 0 mm 1 m/S 695 mmHg 81%
    08:00 +10°C° 0 mm 2 m/S 695 mmHg 74%
    09:00 +13°C° 0 mm 2 m/S 696 mmHg 68%
    10:00 +14°C° 0 mm 2 m/S 696 mmHg 61%
    11:00 +15°C° 0 mm 2 m/S 696 mmHg 58%
    12:00 +16°C° 0 mm 2 m/S 696 mmHg 55%
    13:00 +16°C° 0 mm 2 m/S 696 mmHg 51%
    14:00 +16°C° 0 mm 2 m/S 696 mmHg 53%
    15:00 +16°C° 0 mm 2 m/S 696 mmHg 54%
    16:00 +16°C° 0 mm 2 m/S 696 mmHg 56%
    17:00 +13°C° 0 mm 2 m/S 696 mmHg 65%
    18:00 +11°C° 0 mm 1 m/S 696 mmHg 75%
    19:00 +9°C° 0 mm 1 m/S 696 mmHg 84%
    20:00 +9°C° 0 mm 1 m/S 696 mmHg 85%
    21:00 +8°C° 0 mm 1 m/S 696 mmHg 86%
    22:00 +8°C° 0 mm 1 m/S 697 mmHg 88%
    23:00 +7°C° 0 mm 1 m/S 697 mmHg 88%

    Morgen, 20 September, Freitag

    Zeit Temperatur Niederschläge Wind Luftdruck Luftfeuchtigkeit
    00:00 +7°C° 0 mm 1 m/S 697 mmHg 89%
    01:00 +6°C° 0 mm 1 m/S 697 mmHg 90%
    02:00 +6°C° 0 mm 1 m/S 697 mmHg 90%
    03:00 +6°C° 0 mm 1 m/S 696 mmHg 91%
    04:00 +5°C° 0 mm 1 m/S 696 mmHg 92%
    05:00 +6°C° 0 mm 1 m/S 696 mmHg 90%
    06:00 +6°C° 0 mm 1 m/S 696 mmHg 88%
    07:00 +7°C° 0 mm 1 m/S 696 mmHg 87%
    08:00 +9°C° 0 mm 1 m/S 697 mmHg 77%
    09:00 +11°C° 0 mm 1 m/S 697 mmHg 68%
    10:00 +13°C° 0 mm 1 m/S 698 mmHg 58%
    11:00 +14°C° 0 mm 2 m/S 697 mmHg 56%
    12:00 +15°C° 0 mm 2 m/S 697 mmHg 53%
    13:00 +16°C° 0 mm 2 m/S 697 mmHg 50%
    14:00 +16°C° 0 mm 2 m/S 697 mmHg 51%
    15:00 +16°C° 0 mm 1 m/S 696 mmHg 53%
    16:00 +15°C° 0 mm 1 m/S 696 mmHg 54%
    17:00 +13°C° 0 mm 1 m/S 696 mmHg 64%
    18:00 +11°C° 0 mm 1 m/S 696 mmHg 73%
    19:00 +8°C° 0 mm 1 m/S 696 mmHg 83%
    20:00 +8°C° 0 mm 1 m/S 696 mmHg 83%
    21:00 +7°C° 0 mm 1 m/S 696 mmHg 83%
    22:00 +7°C° 0 mm 1 m/S 696 mmHg 84%
    23:00 +7°C° 0 mm 1 m/S 696 mmHg 84%

    übermorgen, 21 September, Samstag

    Zeit Temperatur Niederschläge Wind Luftdruck Luftfeuchtigkeit
    00:00 +6°C° 0 mm 1 m/S 696 mmHg 84%
    01:00 +6°C° 0 mm 1 m/S 695 mmHg 83%
    02:00 +6°C° 0 mm 1 m/S 695 mmHg 83%
    03:00 +6°C° 0 mm 1 m/S 695 mmHg 82%
    04:00 +6°C° 0 mm 1 m/S 695 mmHg 82%
    05:00 +6°C° 0 mm 1 m/S 695 mmHg 79%
    06:00 +6°C° 0 mm 0 m/S 695 mmHg 77%
    07:00 +7°C° 0 mm 0 m/S 695 mmHg 74%
    08:00 +9°C° 0 mm 0 m/S 695 mmHg 66%
    09:00 +13°C° 0 mm 1 m/S 696 mmHg 58%
    10:00 +16°C° 0 mm 1 m/S 696 mmHg 49%
    11:00 +18°C° 0 mm 1 m/S 696 mmHg 47%
    12:00 +19°C° 0 mm 1 m/S 696 mmHg 45%
    13:00 +20°C° 0 mm 1 m/S 696 mmHg 43%
    14:00 +19°C° 0 mm 1 m/S 695 mmHg 46%
    15:00 +19°C° 0 mm 1 m/S 695 mmHg 49%
    16:00 +18°C° 0 mm 1 m/S 694 mmHg 52%
    17:00 +15°C° 0 mm 1 m/S 694 mmHg 61%
    18:00 +12°C° 0 mm 1 m/S 694 mmHg 71%
    19:00 +10°C° 0 mm 1 m/S 693 mmHg 80%
    20:00 +9°C° 0 mm 1 m/S 693 mmHg 79%
    21:00 +9°C° 0 mm 1 m/S 693 mmHg 78%
    22:00 +9°C° 0 mm 1 m/S 693 mmHg 77%
    23:00 +9°C° 0 mm 1 m/S 693 mmHg 78%

    22 September, Sonntag

    Zeit Temperatur Niederschläge Wind Luftdruck Luftfeuchtigkeit
    00:00 +9°C° 0 mm 1 m/S 692 mmHg 78%
    01:00 +9°C° 0 mm 1 m/S 692 mmHg 79%
    02:00 +9°C° 0 mm 1 m/S 692 mmHg 81%
    03:00 +9°C° 0 mm 1 m/S 691 mmHg 83%
    04:00 +8°C° 0 mm 1 m/S 691 mmHg 86%
    05:00 +9°C° 0 mm 1 m/S 691 mmHg 85%
    06:00 +10°C° 0 mm 1 m/S 691 mmHg 84%
    07:00 +11°C° 0 mm 1 m/S 691 mmHg 83%
    08:00 +12°C° 0 mm 1 m/S 691 mmHg 80%
    09:00 +14°C° 0 mm 1 m/S 691 mmHg 76%
    10:00 +15°C° 0 mm 1 m/S 691 mmHg 73%
    11:00 +16°C° 0.1 mm 1 m/S 691 mmHg 73%
    12:00 +18°C° 0.1 mm 1 m/S 691 mmHg 73%
    13:00 +18°C° 0.1 mm 1 m/S 691 mmHg 74%
    14:00 +18°C° 0.1 mm 1 m/S 690 mmHg 78%
    15:00 +18°C° 0.1 mm 1 m/S 690 mmHg 81%
    16:00 +16°C° 0.1 mm 1 m/S 690 mmHg 85%
    17:00 +15°C° 0.1 mm 1 m/S 690 mmHg 89%
    18:00 +15°C° 0.1 mm 1 m/S 690 mmHg 93%
    19:00 +14°C° 0.1 mm 1 m/S 689 mmHg 97%
    20:00 +14°C° 0 mm 1 m/S 689 mmHg 97%
    21:00 +14°C° 0 mm 1 m/S 689 mmHg 97%
    22:00 +14°C° 0 mm 1 m/S 689 mmHg 97%
    23:00 +14°C° 0 mm 1 m/S 689 mmHg 97%

    23 September, Montag

    Zeit Temperatur Niederschläge Wind Luftdruck Luftfeuchtigkeit
    00:00 +14°C° 0 mm 1 m/S 689 mmHg 97%
    01:00 +14°C° 0 mm 1 m/S 688 mmHg 96%
    02:00 +13°C° 0 mm 1 m/S 688 mmHg 96%
    03:00 +13°C° 0 mm 1 m/S 688 mmHg 96%
    04:00 +13°C° 0 mm 1 m/S 688 mmHg 96%
    05:00 +13°C° 0 mm 1 m/S 688 mmHg 95%
    06:00 +14°C° 0 mm 1 m/S 688 mmHg 94%
    07:00 +13°C° 0 mm 0 m/S 688 mmHg 92%
    08:00 +14°C° 0.1 mm 0 m/S 688 mmHg 91%
    09:00 +14°C° 0.1 mm 0 m/S 689 mmHg 90%
    10:00 +15°C° 0.1 mm 0 m/S 689 mmHg 89%
    11:00 +16°C° 1.5 mm 1 m/S 689 mmHg 90%
    12:00 +15°C° 1.5 mm 1 m/S 689 mmHg 92%
    13:00 +15°C° 1.5 mm 2 m/S 689 mmHg 93%
    14:00 +14°C° 1.1 mm 1 m/S 688 mmHg 93%
    15:00 +13°C° 1.1 mm 1 m/S 688 mmHg 92%
    16:00 +13°C° 1.1 mm 1 m/S 688 mmHg 92%
    17:00 +12°C° 0.2 mm 1 m/S 688 mmHg 92%
    18:00 +12°C° 0.2 mm 1 m/S 688 mmHg 93%
    19:00 +11°C° 0.2 mm 1 m/S 689 mmHg 93%
    20:00 +11°C° 0.2 mm 1 m/S 689 mmHg 93%
    21:00 +11°C° 0.2 mm 1 m/S 689 mmHg 93%
    22:00 +11°C° 0.2 mm 1 m/S 690 mmHg 93%
    23:00 +11°C° 0.2 mm 1 m/S 690 mmHg 93%

    24 September, Dienstag

    Zeit Temperatur Niederschläge Wind Luftdruck Luftfeuchtigkeit
    00:00 +10°C° 0.2 mm 1 m/S 690 mmHg 93%
    01:00 +10°C° 0.2 mm 1 m/S 690 mmHg 93%
    02:00 +9°C° 0.1 mm 1 m/S 690 mmHg 93%
    03:00 +9°C° 0.1 mm 1 m/S 690 mmHg 93%
    04:00 +8°C° 0.1 mm 1 m/S 690 mmHg 94%
    05:00 +8°C° 0 mm 1 m/S 690 mmHg 93%
    06:00 +8°C° 0 mm 1 m/S 690 mmHg 92%
    07:00 +9°C° 0 mm 1 m/S 690 mmHg 91%
    08:00 +11°C° 0 mm 1 m/S 691 mmHg 81%
    09:00 +14°C° 0 mm 1 m/S 691 mmHg 71%
    10:00 +16°C° 0 mm 1 m/S 692 mmHg 62%
    11:00 +18°C° 0 mm 1 m/S 692 mmHg 56%
    12:00 +19°C° 0 mm 1 m/S 692 mmHg 50%
    13:00 +20°C° 0 mm 1 m/S 692 mmHg 44%
    14:00 +20°C° 0 mm 1 m/S 691 mmHg 47%
    15:00 +17°C° 0 mm 0 m/S 691 mmHg 49%
    16:00 +17°C° 0 mm 0 m/S 691 mmHg 52%
    17:00 +16°C° 0 mm 1 m/S 691 mmHg 62%
    18:00 +14°C° 0 mm 1 m/S 690 mmHg 71%
    19:00 +11°C° 0 mm 1 m/S 690 mmHg 81%
    20:00 +11°C° 0 mm 1 m/S 690 mmHg 80%
    21:00 +11°C° 0 mm 1 m/S 691 mmHg 79%
    22:00 +11°C° 0 mm 1 m/S 691 mmHg 78%
    23:00 +11°C° 0 mm 1 m/S 691 mmHg 79%
    Mehr zeigen